Wetterdaten: Mittwoch, 28.01.2015
Datum Zeit Temp. A. Feuchte A. Luftdruck Regen Wind Richtung Richtung Sonnenschein ET UV Solar Taupunkt Windchill Windben Empfang
28.01.2015 00:00 -0,1 C 76 % 1020,1 hPa 0,0 l/m 0,0 km/h (0 Bft) SW 227 0 min 0,000 mm 0,0 UV-I 0 W/m -3,8 C -0,1 C 0,0 km/h (0 Bft) 0,00 %
28.01.2015 00:15 -0,2 C 76 % 1020,0 hPa 0,0 l/m 1,4 km/h (1 Bft) W-SW 250 0 min 0,000 mm 0,0 UV-I 0 W/m -3,9 C -0,2 C 4,0 km/h (1 Bft) 0,00 %
28.01.2015 00:30 -0,3 C 76 % 1020,0 hPa 0,0 l/m 0,4 km/h (0 Bft) S-SW 211 0 min 0,000 mm 0,0 UV-I 0 W/m -4,0 C -0,3 C 4,0 km/h (1 Bft) 0,00 %
28.01.2015 00:45 -0,2 C 76 % 1019,8 hPa 0,0 l/m 0,4 km/h (0 Bft) S-SW 213 0 min 0,000 mm 0,0 UV-I 0 W/m -3,9 C -0,2 C 4,0 km/h (1 Bft) 0,00 %
28.01.2015 01:00 -0,2 C 76 % 1020,0 hPa 0,0 l/m 0,0 km/h (0 Bft) S 186 0 min 0,000 mm 0,0 UV-I 0 W/m -3,9 C -0,2 C 0,0 km/h (0 Bft) 0,00 %
28.01.2015 01:15 -0,3 C 77 % 1020,0 hPa 0,0 l/m 0,4 km/h (0 Bft) S-SW 199 0 min 0,000 mm 0,0 UV-I 0 W/m -3,8 C -0,3 C 4,0 km/h (1 Bft) 0,00 %
28.01.2015 01:30 -0,3 C 77 % 1019,9 hPa 0,0 l/m 0,0 km/h (0 Bft) W-SW 254 0 min 0,000 mm 0,0 UV-I 0 W/m -3,8 C -0,3 C 0,0 km/h (0 Bft) 0,00 %
28.01.2015 01:45 -0,3 C 77 % 1019,9 hPa 0,0 l/m 0,0 km/h (0 Bft) N 351 0 min 0,000 mm 0,0 UV-I 0 W/m -3,8 C -0,3 C 0,0 km/h (0 Bft) 0,00 %
28.01.2015 02:00 -0,3 C 78 % 1020,0 hPa 0,0 l/m 2,9 km/h (1 Bft) W-SW 256 0 min 0,000 mm 0,0 UV-I 0 W/m -3,7 C -0,3 C 7,9 km/h (2 Bft) 0,00 %
28.01.2015 02:15 -0,3 C 80 % 1020,0 hPa 0,0 l/m 0,4 km/h (0 Bft) S-SW 194 0 min 0,000 mm 0,0 UV-I 0 W/m -3,3 C -0,3 C 4,0 km/h (1 Bft) 0,00 %
28.01.2015 02:30 -0,3 C 80 % 1020,1 hPa 0,0 l/m 1,4 km/h (1 Bft) W-SW 250 0 min 0,000 mm 0,0 UV-I 0 W/m -3,3 C -0,3 C 4,0 km/h (1 Bft) 0,00 %
28.01.2015 02:45 -0,3 C 80 % 1020,0 hPa 0,0 l/m 0,0 km/h (0 Bft) S 171 0 min 0,000 mm 0,0 UV-I 0 W/m -3,3 C -0,3 C 0,0 km/h (0 Bft) 0,00 %
28.01.2015 03:00 -0,2 C 80 % 1020,0 hPa 0,0 l/m 0,0 km/h (0 Bft) SW 233 0 min 0,000 mm 0,0 UV-I 0 W/m -3,2 C -0,2 C 0,0 km/h (0 Bft) 0,00 %
28.01.2015 03:15 -0,3 C 80 % 1019,8 hPa 0,0 l/m 0,0 km/h (0 Bft) S 176 0 min 0,000 mm 0,0 UV-I 0 W/m -3,3 C -0,3 C 0,0 km/h (0 Bft) 0,00 %
28.01.2015 03:30 -0,2 C 80 % 1019,9 hPa 0,0 l/m 0,0 km/h (0 Bft) W-SW 253 0 min 0,000 mm 0,0 UV-I 0 W/m -3,2 C -0,2 C 0,0 km/h (0 Bft) 0,00 %
28.01.2015 03:45 -0,2 C 80 % 1019,9 hPa 0,0 l/m 0,0 km/h (0 Bft) W-NW 282 0 min 0,000 mm 0,0 UV-I 0 W/m -3,2 C -0,2 C 0,0 km/h (0 Bft) 0,00 %
28.01.2015 04:00 -0,2 C 80 % 1019,8 hPa 0,0 l/m 0,4 km/h (0 Bft) N-NW 336 0 min 0,000 mm 0,0 UV-I 0 W/m -3,2 C -0,2 C 4,0 km/h (1 Bft) 0,00 %
28.01.2015 04:15 -0,2 C 81 % 1019,8 hPa 0,0 l/m 0,0 km/h (0 Bft) SW 236 0 min 0,000 mm 0,0 UV-I 0 W/m -3,1 C -0,2 C 0,0 km/h (0 Bft) 0,00 %
28.01.2015 04:30 -0,2 C 81 % 1019,8 hPa 0,0 l/m 0,7 km/h (0 Bft) W-SW 255 0 min 0,000 mm 0,0 UV-I 0 W/m -3,1 C -0,2 C 4,0 km/h (1 Bft) 0,00 %
28.01.2015 04:45 -0,2 C 81 % 1019,7 hPa 0,0 l/m 0,4 km/h (0 Bft) S 175 0 min 0,000 mm 0,0 UV-I 0 W/m -3,1 C -0,2 C 4,0 km/h (1 Bft) 0,00 %
28.01.2015 05:00 -0,2 C 81 % 1019,7 hPa 0,0 l/m 0,0 km/h (0 Bft) S 183 0 min 0,000 mm 0,0 UV-I 0 W/m -3,1 C -0,2 C 0,0 km/h (0 Bft) 0,00 %
28.01.2015 05:15 -0,2 C 81 % 1019,7 hPa 0,0 l/m 0,7 km/h (0 Bft) W-SW 255 0 min 0,000 mm 0,0 UV-I 0 W/m -3,1 C -0,2 C 4,0 km/h (1 Bft) 0,00 %
28.01.2015 05:30 -0,2 C 81 % 1019,7 hPa 0,0 l/m 0,4 km/h (0 Bft) N-NO 28 0 min 0,000 mm 0,0 UV-I 0 W/m -3,1 C -0,2 C 4,0 km/h (1 Bft) 0,00 %
28.01.2015 05:45 -0,3 C 81 % 1019,7 hPa 0,0 l/m 0,0 km/h (0 Bft) N 354 0 min 0,000 mm 0,0 UV-I 0 W/m -3,2 C -0,3 C 0,0 km/h (0 Bft) 0,00 %
28.01.2015 06:00 -0,3 C 81 % 1019,7 hPa 0,0 l/m 4,0 km/h (1 Bft) W-SW 255 0 min 0,000 mm 0,0 UV-I 0 W/m -3,2 C -0,3 C 7,9 km/h (2 Bft) 0,00 %
28.01.2015 06:15 -0,2 C 80 % 1019,8 hPa 0,0 l/m 0,7 km/h (0 Bft) W-SW 255 0 min 0,000 mm 0,0 UV-I 0 W/m -3,2 C -0,2 C 4,0 km/h (1 Bft) 0,00 %
28.01.2015 06:30 -0,2 C 80 % 1019,5 hPa 0,0 l/m 0,0 km/h (0 Bft) W-NW 301 0 min 0,000 mm 0,0 UV-I 0 W/m -3,2 C -0,2 C 0,0 km/h (0 Bft) 0,00 %
28.01.2015 06:45 -0,2 C 80 % 1019,4 hPa 0,0 l/m 0,0 km/h (0 Bft) W-SW 241 0 min 0,000 mm 0,0 UV-I 0 W/m -3,2 C -0,2 C 0,0 km/h (0 Bft) 0,00 %
28.01.2015 07:00 -0,1 C 79 % 1019,6 hPa 0,0 l/m 0,4 km/h (0 Bft) SW 235 0 min 0,000 mm 0,0 UV-I 0 W/m -3,3 C -0,1 C 4,0 km/h (1 Bft) 0,00 %
28.01.2015 07:15 0,0 C 78 % 1019,7 hPa 0,0 l/m 0,7 km/h (0 Bft) W-SW 256 0 min 0,000 mm 0,0 UV-I 0 W/m -3,4 C 0,0 C 4,0 km/h (1 Bft) 0,00 %
28.01.2015 07:30 0,0 C 78 % 1019,6 hPa 0,0 l/m 0,7 km/h (0 Bft) W-SW 254 0 min 0,000 mm 0,0 UV-I 0 W/m -3,4 C 0,0 C 4,0 km/h (1 Bft) 0,00 %
28.01.2015 07:45 0,0 C 77 % 1019,4 hPa 0,0 l/m 0,0 km/h (0 Bft) O-SO 111 0 min 0,000 mm 0,0 UV-I 0 W/m -3,5 C 0,0 C 0,0 km/h (0 Bft) 0,00 %
28.01.2015 08:00 0,0 C 77 % 1019,5 hPa 0,0 l/m 0,7 km/h (0 Bft) S 189 0 min 0,000 mm 0,0 UV-I 4 W/m -3,5 C 0,0 C 4,0 km/h (1 Bft) 0,00 %
28.01.2015 08:15 0,0 C 77 % 1019,7 hPa 0,0 l/m 0,0 km/h (0 Bft) SW 225 0 min 0,000 mm 0,0 UV-I 20 W/m -3,5 C 0,0 C 0,0 km/h (0 Bft) 0,00 %
28.01.2015 08:30 0,1 C 76 % 1019,3 hPa 0,0 l/m 0,0 km/h (0 Bft) S-SW 200 0 min 0,000 mm 1,0 UV-I 42 W/m -3,6 C 0,1 C 0,0 km/h (0 Bft) 0,00 %
28.01.2015 08:45 0,2 C 75 % 1019,3 hPa 0,0 l/m 0,4 km/h (0 Bft) S 172 0 min 0,000 mm 1,0 UV-I 58 W/m -3,7 C 0,2 C 4,0 km/h (1 Bft) 0,00 %
28.01.2015 09:00 0,2 C 74 % 1019,3 hPa 0,0 l/m 0,7 km/h (0 Bft) SO 130 0 min 0,000 mm 1,0 UV-I 59 W/m -3,9 C 0,2 C 4,0 km/h (1 Bft) 0,00 %
28.01.2015 09:15 0,7 C 72 % 1018,9 hPa 0,0 l/m 0,4 km/h (0 Bft) O-SO 110 0 min 0,000 mm 1,0 UV-I 96 W/m -3,8 C 0,7 C 4,0 km/h (1 Bft) 0,00 %
28.01.2015 09:30 1,3 C 69 % 1018,8 hPa 0,0 l/m 1,4 km/h (1 Bft) SW 233 0 min 0,000 mm 1,0 UV-I 129 W/m -3,7 C 1,3 C 4,0 km/h (1 Bft) 0,00 %
28.01.2015 09:45 1,6 C 70 % 1018,8 hPa 0,0 l/m 0,0 km/h (0 Bft) O-SO 120 0 min 0,000 mm 1,0 UV-I 133 W/m -3,3 C 1,6 C 0,0 km/h (0 Bft) 0,00 %
28.01.2015 10:00 1,4 C 70 % 1018,9 hPa 0,0 l/m 0,0 km/h (0 Bft) SW 234 0 min 0,000 mm 2,0 UV-I 155 W/m -3,5 C 1,4 C 0,0 km/h (0 Bft) 0,00 %
28.01.2015 10:15 1,4 C 70 % 1018,6 hPa 0,0 l/m 0,4 km/h (0 Bft) O-SO 122 0 min 0,000 mm 2,0 UV-I 143 W/m -3,5 C 1,4 C 4,0 km/h (1 Bft) 0,00 %
28.01.2015 10:30 1,3 C 70 % 1018,5 hPa 0,0 l/m 0,0 km/h (0 Bft) S-SW 211 0 min 0,000 mm 1,0 UV-I 105 W/m -3,6 C 1,3 C 0,0 km/h (0 Bft) 0,00 %
28.01.2015 10:45 1,6 C 69 % 1018,4 hPa 0,0 l/m 0,0 km/h (0 Bft) W-SW 250 0 min 0,000 mm 2,0 UV-I 125 W/m -3,5 C 1,6 C 0,0 km/h (0 Bft) 0,00 %
28.01.2015 11:00 1,8 C 68 % 1018,1 hPa 0,0 l/m 0,0 km/h (0 Bft) S 173 0 min 0,000 mm 2,0 UV-I 168 W/m -3,5 C 1,8 C 0,0 km/h (0 Bft) 0,00 %
28.01.2015 11:15 2,4 C 70 % 1017,7 hPa 0,0 l/m 0,4 km/h (0 Bft) NO 42 0 min 0,000 mm 2,0 UV-I 211 W/m -2,5 C 2,4 C 4,0 km/h (1 Bft) 0,00 %
28.01.2015 11:30 2,8 C 68 % 1017,6 hPa 0,0 l/m 0,0 km/h (0 Bft) S 182 0 min 0,000 mm 2,0 UV-I 209 W/m -2,5 C 2,8 C 0,0 km/h (0 Bft) 0,00 %
28.01.2015 11:45 3,6 C 66 % 1017,0 hPa 0,0 l/m 2,9 km/h (1 Bft) NO 35 15 min 0,000 mm 2,0 UV-I 224 W/m -2,1 C 3,6 C 7,9 km/h (2 Bft) 0,00 %
28.01.2015 12:00 2,7 C 67 % 1016,8 hPa 0,0 l/m 7,9 km/h (2 Bft) W-SW 256 0 min 0,000 mm 2,0 UV-I 150 W/m -2,8 C 1,3 C 15,8 km/h (3 Bft) 0,00 %
28.01.2015 12:15 2,5 C 65 % 1016,5 hPa 0,0 l/m 4,7 km/h (1 Bft) W-NW 283 0 min 0,000 mm 2,0 UV-I 151 W/m -3,4 C 2,5 C 7,9 km/h (2 Bft) 0,00 %
28.01.2015 12:30 2,8 C 64 % 1016,3 hPa 0,0 l/m 0,0 km/h (0 Bft) S 188 0 min 0,000 mm 2,0 UV-I 175 W/m -3,3 C 2,8 C 0,0 km/h (0 Bft) 0,00 %
28.01.2015 12:45 3,0 C 63 % 1016,0 hPa 0,0 l/m 2,2 km/h (1 Bft) N-NW 341 0 min 0,000 mm 2,0 UV-I 168 W/m -3,3 C 3,0 C 4,0 km/h (1 Bft) 0,00 %
28.01.2015 13:00 2,9 C 62 % 1015,6 hPa 0,0 l/m 1,4 km/h (1 Bft) O 97 0 min 0,000 mm 2,0 UV-I 129 W/m -3,6 C 2,9 C 4,0 km/h (1 Bft) 0,00 %
28.01.2015 13:15 2,8 C 63 % 1015,3 hPa 0,0 l/m 0,0 km/h (0 Bft) S 175 0 min 0,000 mm 2,0 UV-I 158 W/m -3,5 C 2,8 C 0,0 km/h (0 Bft) 0,00 %
28.01.2015 13:30 2,9 C 61 % 1014,8 hPa 0,0 l/m 2,9 km/h (1 Bft) W-SW 255 0 min 0,000 mm 2,0 UV-I 141 W/m -3,9 C 2,9 C 4,0 km/h (1 Bft) 0,00 %
28.01.2015 13:45 2,8 C 59 % 1014,5 hPa 0,0 l/m 0,0 km/h (0 Bft) W-SW 252 0 min 0,000 mm 2,0 UV-I 157 W/m -4,4 C 2,8 C 0,0 km/h (0 Bft) 0,00 %
28.01.2015 14:00 2,7 C 57 % 1014,3 hPa 0,0 l/m 5,4 km/h (1 Bft) SW 236 0 min 0,000 mm 2,0 UV-I 164 W/m -4,9 C 2,7 C 11,9 km/h (2 Bft) 0,00 %
28.01.2015 14:15 2,9 C 56 % 1014,3 hPa 0,3 l/m 0,4 km/h (0 Bft) NW 309 0 min 0,000 mm 2,0 UV-I 169 W/m -5,0 C 2,9 C 4,0 km/h (1 Bft) 0,00 %
28.01.2015 14:30 2,9 C 56 % 1013,9 hPa 0,0 l/m 0,7 km/h (0 Bft) S-SW 211 0 min 0,000 mm 1,0 UV-I 133 W/m -5,0 C 2,9 C 4,0 km/h (1 Bft) 0,00 %
28.01.2015 14:45 2,8 C 56 % 1013,5 hPa 0,0 l/m 1,4 km/h (1 Bft) W-SW 253 0 min 0,000 mm 1,0 UV-I 104 W/m -5,1 C 2,8 C 4,0 km/h (1 Bft) 0,00 %
28.01.2015 15:00 2,9 C 57 % 1013,4 hPa 0,0 l/m 0,4 km/h (0 Bft) S-SW 206 0 min 0,000 mm 1,0 UV-I 91 W/m -4,8 C 2,9 C 4,0 km/h (1 Bft) 0,00 %
28.01.2015 15:15 2,7 C 57 % 1013,4 hPa 0,0 l/m 8,3 km/h (2 Bft) S 180 0 min 0,000 mm 1,0 UV-I 84 W/m -4,9 C 0,9 C 11,9 km/h (2 Bft) 0,00 %
28.01.2015 15:30 2,5 C 52 % 1013,0 hPa 0,0 l/m 0,0 km/h (0 Bft) S-SW 193 0 min 0,000 mm 1,0 UV-I 76 W/m -6,3 C 2,5 C 0,0 km/h (0 Bft) 0,00 %
28.01.2015 15:45 2,1 C 53 % 1012,7 hPa 0,0 l/m 0,0 km/h (0 Bft) S-SW 193 0 min 0,000 mm 1,0 UV-I 62 W/m -6,5 C 2,1 C 0,0 km/h (0 Bft) 0,00 %
28.01.2015 16:00 1,8 C 54 % 1012,8 hPa 0,0 l/m 0,0 km/h (0 Bft) SW 222 0 min 0,000 mm 1,0 UV-I 57 W/m -6,5 C 1,8 C 0,0 km/h (0 Bft) 0,00 %
28.01.2015 16:15 1,2 C 59 % 1012,5 hPa 0,0 l/m 0,0 km/h (0 Bft) S-SW 213 0 min 0,000 mm 0,0 UV-I 43 W/m -5,9 C 1,2 C 0,0 km/h (0 Bft) 0,00 %
28.01.2015 16:30 0,7 C 60 % 1012,5 hPa 0,0 l/m 0,0 km/h (0 Bft) S-SW 209 0 min 0,000 mm 0,0 UV-I 25 W/m -6,2 C 0,7 C 0,0 km/h (0 Bft) 0,00 %
28.01.2015 16:45 0,3 C 62 % 1012,2 hPa 0,0 l/m 0,0 km/h (0 Bft) S-SW 209 0 min 0,000 mm 0,0 UV-I 7 W/m -6,1 C 0,3 C 0,0 km/h (0 Bft) 0,00 %
28.01.2015 17:00 -0,1 C 66 % 1012,3 hPa 0,0 l/m 0,0 km/h (0 Bft) S-SW 209 0 min 0,000 mm 0,0 UV-I 0 W/m -5,7 C -0,1 C 0,0 km/h (0 Bft) 0,00 %
28.01.2015 17:15 -0,6 C 69 % 1012,3 hPa 0,0 l/m 0,0 km/h (0 Bft) S-SW 209 0 min 0,000 mm 0,0 UV-I 0 W/m -5,6 C -0,6 C 0,0 km/h (0 Bft) 0,00 %
28.01.2015 17:30 -0,7 C 71 % 1011,8 hPa 0,0 l/m 0,0 km/h (0 Bft) S-SW 209 0 min 0,000 mm 0,0 UV-I 0 W/m -5,3 C -0,7 C 0,0 km/h (0 Bft) 0,00 %
28.01.2015 17:45 -0,9 C 71 % 1011,3 hPa 0,0 l/m 0,0 km/h (0 Bft) S-SW 198 0 min 0,000 mm 0,0 UV-I 0 W/m -5,5 C -0,9 C 0,0 km/h (0 Bft) 0,00 %
28.01.2015 18:00 -1,0 C 71 % 1011,0 hPa 0,0 l/m 0,0 km/h (0 Bft) S-SW 211 0 min 0,000 mm 0,0 UV-I 0 W/m -5,6 C -1,0 C 0,0 km/h (0 Bft) 0,00 %
28.01.2015 18:15 -0,6 C 66 % 1009,8 hPa 0,0 l/m 0,4 km/h (0 Bft) S-SW 196 0 min 0,000 mm 0,0 UV-I 0 W/m -6,1 C -0,6 C 4,0 km/h (1 Bft) 0,00 %
28.01.2015 18:30 -0,8 C 65 % 1009,5 hPa 0,0 l/m 0,0 km/h (0 Bft) W-SW 255 0 min 0,000 mm 0,0 UV-I 0 W/m -6,5 C -0,8 C 0,0 km/h (0 Bft) 0,00 %
28.01.2015 18:45 -0,8 C 63 % 1009,1 hPa 0,0 l/m 0,0 km/h (0 Bft) S-SW 199 0 min 0,000 mm 0,0 UV-I 0 W/m -6,9 C -0,8 C 0,0 km/h (0 Bft) 0,00 %
28.01.2015 19:00 -1,0 C 63 % 1008,7 hPa 0,0 l/m 0,0 km/h (0 Bft) W-SW 255 0 min 0,000 mm 0,0 UV-I 0 W/m -7,1 C -1,0 C 0,0 km/h (0 Bft) 0,00 %
28.01.2015 19:15 -1,2 C 63 % 1008,4 hPa 0,0 l/m 0,0 km/h (0 Bft) SW 232 0 min 0,000 mm 0,0 UV-I 0 W/m -7,3 C -1,2 C 0,0 km/h (0 Bft) 0,00 %
28.01.2015 19:30 -1,4 C 63 % 1007,9 hPa 0,0 l/m 0,0 km/h (0 Bft) W-SW 253 0 min 0,000 mm 0,0 UV-I 0 W/m -7,5 C -1,4 C 0,0 km/h (0 Bft) 0,00 %
28.01.2015 19:45 -1,4 C 63 % 1007,5 hPa 0,0 l/m 0,0 km/h (0 Bft) W-SW 241 0 min 0,000 mm 0,0 UV-I 0 W/m -7,5 C -1,4 C 0,0 km/h (0 Bft) 0,00 %
28.01.2015 20:00 -1,7 C 64 % 1007,1 hPa 0,0 l/m 0,0 km/h (0 Bft) SW 231 0 min 0,000 mm 0,0 UV-I 0 W/m -7,6 C -1,7 C 0,0 km/h (0 Bft) 0,00 %
28.01.2015 20:15 -2,0 C 64 % 1006,5 hPa 0,0 l/m 0,0 km/h (0 Bft) W-SW 251 0 min 0,000 mm 0,0 UV-I 0 W/m -7,9 C -2,0 C 0,0 km/h (0 Bft) 0,00 %
28.01.2015 20:30 -1,9 C 66 % 1006,4 hPa 0,0 l/m 0,0 km/h (0 Bft) W-SW 250 0 min 0,000 mm 0,0 UV-I 0 W/m -7,4 C -1,9 C 0,0 km/h (0 Bft) 0,00 %
28.01.2015 20:45 -3,1 C 66 % 1006,2 hPa 0,0 l/m 0,0 km/h (0 Bft) S 181 0 min 0,000 mm 0,0 UV-I 0 W/m -8,5 C -3,1 C 0,0 km/h (0 Bft) 0,00 %
28.01.2015 21:00 -3,1 C 64 % 1006,0 hPa 0,0 l/m 0,0 km/h (0 Bft) S-SW 197 0 min 0,000 mm 0,0 UV-I 0 W/m -8,9 C -3,1 C 0,0 km/h (0 Bft) 0,00 %
28.01.2015 21:15 -3,1 C 64 % 1005,0 hPa 0,0 l/m 0,0 km/h (0 Bft) S 190 0 min 0,000 mm 0,0 UV-I 0 W/m -8,9 C -3,1 C 0,0 km/h (0 Bft) 0,00 %
28.01.2015 21:30 -2,9 C 66 % 1004,9 hPa 0,0 l/m 0,0 km/h (0 Bft) S-SW 196 0 min 0,000 mm 0,0 UV-I 0 W/m -8,3 C -2,9 C 0,0 km/h (0 Bft) 0,00 %
28.01.2015 21:45 -2,2 C 70 % 1004,1 hPa 0,0 l/m 1,8 km/h (1 Bft) O-SO 108 0 min 0,000 mm 0,0 UV-I 0 W/m -6,9 C -2,2 C 4,0 km/h (1 Bft) 0,00 %
28.01.2015 22:00 -2,1 C 72 % 1003,9 hPa 0,0 l/m 0,0 km/h (0 Bft) W-SW 251 0 min 0,000 mm 0,0 UV-I 0 W/m -6,5 C -2,1 C 0,0 km/h (0 Bft) 0,00 %
28.01.2015 22:15 -2,2 C 73 % 1003,4 hPa 0,0 l/m 0,0 km/h (0 Bft) S 182 0 min 0,000 mm 0,0 UV-I 0 W/m -6,4 C -2,2 C 0,0 km/h (0 Bft) 0,00 %
28.01.2015 22:30 -2,0 C 73 % 1003,0 hPa 0,0 l/m 0,0 km/h (0 Bft) SW 221 0 min 0,000 mm 0,0 UV-I 0 W/m -6,2 C -2,0 C 0,0 km/h (0 Bft) 0,00 %
28.01.2015 22:45 -2,1 C 73 % 1002,8 hPa 0,0 l/m 0,0 km/h (0 Bft) SW 217 0 min 0,000 mm 0,0 UV-I 0 W/m -6,3 C -2,1 C 0,0 km/h (0 Bft) 0,00 %
28.01.2015 23:00 -2,5 C 69 % 1002,4 hPa 0,0 l/m 0,0 km/h (0 Bft) S-SW 197 0 min 0,000 mm 0,0 UV-I 0 W/m -7,4 C -2,5 C 0,0 km/h (0 Bft) 0,00 %
28.01.2015 23:15 -2,8 C 70 % 1001,9 hPa 0,0 l/m 0,0 km/h (0 Bft) S-SW 197 0 min 0,000 mm 0,0 UV-I 0 W/m -7,5 C -2,8 C 0,0 km/h (0 Bft) 0,00 %
28.01.2015 23:30 -3,0 C 71 % 1001,9 hPa 0,0 l/m 0,0 km/h (0 Bft) S-SW 213 0 min 0,000 mm 0,0 UV-I 0 W/m -7,5 C -3,0 C 0,0 km/h (0 Bft) 0,00 %
28.01.2015 23:45 -3,0 C 73 % 1001,5 hPa 0,0 l/m 0,0 km/h (0 Bft) NW 304 0 min 0,000 mm 0,0 UV-I 0 W/m -7,1 C -3,0 C 0,0 km/h (0 Bft) 0,00 %
_ Min-Zeit 20:45 15:30 23:45 - 00:00 - - - - - - 21:00 20:45 00:00 00:00
Minimum _ -3,1 C 52 % 1001,5 hPa - 0,0 km/h (0 Bft) - - - - - - -8,9 C -3,1 C 0,0 km/h (0 Bft) 0,00 %
_ Max-Zeit 11:45 04:15 00:00 14:15 15:15 - - 11:45 00:00 10:00 11:45 11:45 11:45 12:00 00:00
Maximum _ 3,6 C 81 % 1020,1 hPa 0,3 l/m 8,3 km/h
S (2 Bft)
- - 15 min 0,000 mm 2,0 UV-I 224 W/m -2,1 C 3,6 C 15,8 km/h
W-SW (3 Bft)
0,00 %
Durchschnitt _ 0,1 C 70 % 1014,6 hPa #0,3 l/m 0,6 km/h (0 Bft) W-SW - #15 min. #0,000 mm 1,5 UV-I 115 W/m -4,7 C 0,1 C 2,1 km/h (1 Bft) 0,00 %